Location: Clermont
(50.2608°N, 4.3172°E)
Time: 15:46:44
(UTC+00:00)

H-2A R/B - Pass Details

Date: 13 August 2020
Orbit: 575 x 597 km, 98.2° (Epoch: 25 September)

Event Time Altitude Azimuth Distance (km) Brightness Sun altitude
Rises 20:49:43 0° 13° (NNE) 2,810 7.4 -14.6°
Reaches altitude 10° 20:51:53 10° 12° (NNE) 1,909 6.5 -14.8°
Maximum altitude 20:56:00 78° 287° (WNW) 602 3.5 -15.3°
Drops below altitude 10° 21:00:08 10° 201° (SSW) 1,906 5.8 -15.7°
Enters shadow 21:00:50 - 200° (SSW) 2,198 6.1 -15.8°
